Regional Weather Roundup
Issued by NWS

Home | Current Version | Previous Version | Graphics & Text | Print | Product List | Glossary On
Versions: 1 2 3 4 5 6 7 8 9 10 11 12 13 14 15 16 17 18 19 20 21 22 23 24 25 26 27 28 29 30 31 32 33 34 35 36 37 38 39 40 41 42 43 44 45 46 47 48 49 50
000
ASUS43 KBIS 220620
RWRND

NORTH DAKOTA REGIONAL WEATHER ROUNDUP
NATIONAL WEATHER SERVICE BISMARCK ND
100 AM CDT FRI AUG 22 2014

NOTE: "FAIR" INDICATES FEW OR NO CLOUDS BELOW 12,000 FEET WITH NO
SIGNIFICANT WEATHER AND/OR OBSTRUCTIONS TO VISIBILITY.


NDZ001>003-009>011-017-220700-
NORTHWEST NORTH DAKOTA

CITY           SKY/WX    TMP DP  RH WIND       PRES   REMARKS
WILLISTON      LGT RAIN  63  59  87 NE5       30.04R
6HR MIN TEMP:  63; 6HR MAX TEMP:  76;

MINOT          CLOUDY    64  61  90 NW8       29.98S
MINOT AFB      CLOUDY    64  64 100 N9        29.99R
$$

NDZ018>021-031>035-040>046-220700-
SOUTHWEST NORTH DAKOTA

CITY           SKY/WX    TMP DP  RH WIND       PRES   REMARKS
BISMARCK       MOCLDY    68  63  84 NE6       29.96R
6HR MIN TEMP:  64; 6HR MAX TEMP:  80;

DICKINSON      LGT RAIN  62  60  93 NE3       30.02R FOG
GARRISON         N/A     64  62  93 N5        29.98S
6HR MIN TEMP:  64; 6HR MAX TEMP:  78;

HETTINGER ARPT LGT RAIN  61  58  90 NE21G28   29.99F
$$

NDZ004>008-012>016-024-026-027-054-220700-
NORTHEAST NORTH DAKOTA

CITY           SKY/WX    TMP DP  RH WIND       PRES   REMARKS
GRAND FORKS    FAIR      68  66  94 NW6       29.88R
GRND FRKS AFB  FAIR      67  67 100 N8        29.89S
DEVILS LAKE    CLOUDY    66  63  88 N12       29.93R
$$

NDZ022-023-025-028>030-036>039-047>053-220700-
SOUTHEAST NORTH DAKOTA

CITY           SKY/WX    TMP DP  RH WIND       PRES   REMARKS
FARGO          FOG       65  64  97 CALM      29.87S VSB 1/4
6HR MIN TEMP:  65; 6HR MAX TEMP:  78;

JAMESTOWN      FAIR      67  65  93 N8        29.91S
$$



USA.gov is the U.S. government's official web portal to all federal, state and local government web resources and services.